Reflectivity
-20 -20 -20 -20 7 -18 -19 -20 -20 -20 -18 15 -20 9 -20 -20 -20 -20 -20 -20 -20 -20 -20 14 -15 -20 -20 -20 -20 -20 -20 -20 -20 -20 -20 -20 -20 -20 -20 -20 -20 -20 -20
-20 -20 -20 -15 -19 -20 -17 -10 13 -20 -17 16 11 5 -20 -20 -20 -20 -20 -20 -20 -20 -20 13 -20 -20 -20 -20 -20 -20 -20 -20 -20 -20 -20 -20 -20 -20 -20 -20 -20 -20 -20
-20 -20 -20 -16 -20 -20 -20 -18 -18 -20 6 3 11 12 -20 -20 -20 -20 -14 11 -20 -20 11 22 -9 -20 -20 -20 -20 -20 -20 -20 -20 -20 -20 -20 -20 -20 -20 -20 -20 -20 -20
-20 -20 -20 1 -20 1 -20 -20 -12 -20 -4 -20 -20 -8 -20 -20 -20 -20 13 11 11 -7 -3 -14 -20 -20 -20 -20 -20 -20 -20 -20 -20 -20 -20 -20 -20 -11 -16 -20 -20 -20 -20
-20 -20 -20 7 -20 14 4 -20 -20 -20 -20 -7 -20 -20 -20 -20 -20 -20 -6 -18 -14 -20 -0 -20 -20 -20 -20 -20 -20 -20 -20 -20 -20 -20 -20 -20 0 -20 2 -1 -15 -20 -20
-20 -20 -20 -14 -4 4 -20 -20 -20 4 12 5 -20 -20 -20 -20 -20 -20 -20 -20 -20 -20 -20 -20 -20 -20 -20 -20 -20 -20 -20 -20 -20 -20 -20 -20 -19 -12 8 7 18 7 7
-20 -20 -20 -20 -1 -13 -20 -20 2 16 17 -20 -20 -20 -20 -20 -20 -20 -20 -20 -20 -20 -20 -20 -20 -20 -20 -20 -20 -20 -20 -20 -20 -20 -20 -20 -20 -14 -14 -17 -20 7 5
-20 -20 -20 6 11 10 -2 -20 4 15 16 8 -20 -20 -20 -20 -20 -20 -20 -20 -20 -20 -20 -20 -20 -20 -20 -20 -20 -20 -20 -20 -20 -20 -20 -20 -20 -0 -16 -20 -20 -7 -18
-20 -20 -20 -14 5 4 8 -16 -20 -20 -11 12 -2 -20 -20 -20 -20 -20 -20 -20 -20 -20 -20 -20 -20 -20 -20 -20 -20 -20 -20 -20 -20 -20 -20 -20 -20 4 -16 -20 -17 -13 -20
-20 -20 -20 -20 -20 -20 -20 -20 -20 -20 -20 -20 13 -1 -20 -20 -20 -20 -20 -20 -20 -20 -19 -17 -20 -20 -20 -20 -20 -20 -20 -20 -20 -20 -20 -20 11 -9 -15 -20 -19 -3 -20
-20 -20 -20 -20 -20 -20 -20 -20 -20 -20 -20 1 10 -15 -20 -20 -20 -20 -20 -20 -20 11 4 -20 -20 -20 -20 -20 -20 -20 -20 -20 -20 -20 -20 -20 -12 -2 -20 -20 -20 13 -20
-20 -20 -20 -20 -20 -20 -20 -20 -20 -20 -20 3 -9 -20 -20 -20 -20 -20 -20 -20 -20 2 -11 -20 -20 -20 -20 -20 -20 -20 -20 -20 -20 -20 -20 -20 -20 -20 -20 -20 -20 -20 -20
-20 -20 -20 -20 -20 -20 -20 -20 -20 -20 -20 -20 -20 -20 -20 -20 -20 -20 -20 -20 -20 -20 -8 -20 -20 -20 -20 -20 -20 -20 -20 -20 -20 -20 -20 -20 -20 -20 -20 -20 -20 -20 -20
-20 -20 -20 -20 -20 -20 -20 -20 -20 -20 -20 -20 -20 -20 -20 -20 -20 -20 -20 -20 -20 -20 -20 -20 -20 -20 -20 -20 -20 -20 -20 -20 -20 -20 -20 -20 -20 -20 -20 -20 -20 -20 -20
-20 -20 -20 -20 -20 -20 -20 -20 -20 -20 -20 -20 -20 -20 -20 -20 -20 -20 -20 -20 -20 -20 -20 -20 -20 -20 -20 -20 -20 -20 -20 -20 -20 -20 -20 -20 -20 -20 -20 -20 -20 -20 -20
-20 -20 -20 -20 -20 -20 -20 -20 -20 -20 -20 -20 -20 -20 -20 -20 -20 -20 -20 -20 -20 -20 -20 -20 -20 -20 -20 -20 -20 -20 -20 -20 -20 -20 -20 -20 -20 -20 -20 -20 -20 -20 -20
-20 -20 -20 -20 -20 -20 -8 -20 -20 -20 -20 -20 -20 -20 -20 -20 -20 -20 -20 -20 -20 -20 -20 -20 -20 -20 -20 -20 -20 -20 -20 -20 -20 -20 -20 -20 -20 -20 -20 -20 -20 -20 -20
-20 -20 -20 -20 -20 -20 -20 -20 6 2 -20 -20 -20 -20 -20 -20 -20 -20 -20 -20 -20 -20 -20 -20 -20 -20 -20 -20 -20 -20 -20 -20 -20 -20 -20 -20 -20 -20 -20 -20 -20 -20 -20
-20 -20 -20 -20 -20 -20 -20 -20 -20 -3 5 -8 -20 -20 -20 -20 -20 -20 -20 -20 -20 -20 -20 -20 -20 -20 -20 -20 -20 -20 -20 -20 -20 -20 -20 -20 -20 -20 -20 -20 -20 -20 -20
-20 -20 -20 -20 -20 -20 -20 -20 3 -20 -5 -15 -20 -20 -20 -20 -20 -20 -20 -20 -20 -20 -20 -20 -20 -20 -20 -20 -20 -20 -20 -20 -20 -20 -20 -20 -20 -20 -20 -20 -20 -20 -20
-20 -20 -20 -20 -20 -20 -20 -20 -1 -20 -20 -20 -20 -20 -20 -20 -20 -20 -20 -20 -20 -20 -20 -20 -20 -20 -20 -20 -20 -20 -20 -20 -20 -20 -20 -20 -20 -20 -20 -20 -20 -20 -20
-20 -20 -20 -20 -20 -20 -20 -20 -20 -20 -20 -15 7 2 -20 -20 -12 -20 -20 -20 -20 -20 -20 -20 -20 -20 -20 -20 -20 -20 -20 -20 -20 -20 -20 -20 -20 -20 -20 -20 -20 -20 -20
-20 -20 -20 -20 -20 -20 -20 -20 -20 -20 -20 -7 -16 -20 -20 -7 -18 -20 -20 -20 -20 -20 -20 -20 -20 -20 -20 -20 -20 -20 -20 -20 -20 -20 -20 -20 -20 -20 -20 -20 -20 -20 -20
-20 -20 -20 -20 -20 -20 -20 -20 -20 -20 -20 -20 -20 -20 -20 -20 -20 -17 -20 -18 -18 -20 -20 -20 18 -20 -20 5 20 -20 -20 -20 -20 -20 -20 -20 -13 -17 -7 -20 -20 -20 -20
-20 -20 -20 -20 -20 -20 -20 -20 -20 -20 -20 -20 -20 -20 -20 -20 -20 -20 -20 -20 -20 -20 -20 22 -20 -20 -19 -20 24 -10 -3 -20 -20 -20 -20 -20 17 3 -20 -20 -20 -20 -20
-20 -20 -20 -20 -20 -20 -20 -20 -20 -20 -20 -20 -20 -20 -20 -20 -20 8 -20 11 -10 5 -17 22 10 14 -14 25 -20 -20 17 16 -20 -9 -20 -20 -8 12 -20 -20 -20 -20 -20
Wind_Speed
12 16 13 13 13 14 13 13 12 12 12 14 12 11 9 9 8 6 5 4 4 4 6 11 12 12 13 12 12 12 12 12 11 11 11 10 10 12 11 9 11 10 9
16 17 13 14 13 12 11 12 13 13 13 14 13 10 8 8 6 5 5 4 5 4 7 8 12 13 12 11 11 11 11 11 9 7 8 11 9 9 9 11 12 10 8
15 17 15 15 13 12 12 14 14 14 15 14 13 10 7 7 6 6 7 6 7 7 8 12 13 12 11 11 10 10 10 8 4 3 6 7 9 8 7 7 6 7 7
14 15 15 15 13 12 14 14 14 13 13 12 11 11 8 7 7 8 10 13 16 15 15 14 12 11 11 10 10 10 9 6 1 5 0 7 11 9 5 6 4 4 4
14 14 16 15 13 13 15 14 13 11 12 13 12 10 8 8 8 9 11 13 14 13 13 12 10 10 10 9 9 8 7 4 3 4 8 8 5 10 11 12 3 2 6
13 12 17 14 14 14 13 13 12 12 12 13 12 11 9 9 9 10 11 11 11 11 11 10 10 9 9 8 7 6 4 2 7 5 7 8 9 10 11 15 16 15 11
12 15 14 11 14 14 12 11 13 12 13 13 12 11 10 9 9 9 9 10 9 9 9 9 9 9 8 6 6 5 3 5 5 3 6 11 9 8 11 13 15 15 16
11 12 14 10 13 12 11 8 11 10 14 13 12 10 10 10 9 9 8 8 8 8 8 9 9 8 7 5 5 4 3 5 3 5 4 8 5 8 11 11 11 12 14
11 11 13 11 9 10 9 7 7 8 10 12 12 10 9 9 9 9 8 8 8 8 8 8 8 6 6 5 5 4 2 6 6 5 2 6 5 11 12 12 11 10 12
9 10 13 13 12 11 10 7 7 7 9 10 11 12 9 8 7 8 6 6 6 7 7 9 8 6 6 5 5 4 2 6 4 2 2 6 10 12 12 12 10 9 11
9 9 11 12 11 10 10 10 7 7 7 9 10 9 11 8 8 10 5 9 4 7 6 9 8 7 7 6 4 3 5 1 2 1 6 9 10 10 9 10 8 8 9
8 11 9 9 10 10 7 11 10 10 9 9 10 11 9 9 9 8 9 8 5 5 5 9 8 7 8 6 4 4 5 2 1 1 7 8 9 10 9 10 9 9 9
9 7 9 9 9 10 8 7 6 7 7 9 15 13 12 8 8 6 6 6 6 6 6 7 6 6 7 3 3 4 1 1 2 2 9 9 10 9 8 8 8 8 8
11 11 8 9 9 10 7 7 7 7 7 7 8 12 8 6 7 8 6 7 8 7 9 9 6 7 4 5 5 4 3 3 3 2 8 6 9 9 8 8 8 7 7
11 13 12 10 9 7 9 8 8 8 7 9 8 10 9 8 8 8 8 8 7 8 8 7 6 5 6 6 4 4 4 5 4 2 7 8 8 9 8 8 7 7 7
12 11 12 12 10 11 10 10 7 8 8 9 9 9 13 9 8 8 8 5 6 8 8 8 8 7 6 6 6 5 5 4 4 4 7 6 6 8 9 8 7 7 7
11 12 13 13 13 14 13 9 7 8 7 8 9 12 13 12 11 10 8 8 6 9 10 8 8 7 6 6 7 6 5 6 5 6 4 7 6 5 7 8 7 7 6
8 9 11 11 14 15 12 9 7 8 8 8 9 9 14 14 14 11 9 8 11 10 7 7 7 6 6 6 6 5 5 5 6 6 5 4 7 7 4 8 8 7 6
13 13 12 11 13 14 14 12 10 9 8 9 8 9 12 14 15 11 9 9 11 8 7 7 7 8 7 6 6 6 5 5 6 6 7 7 6 5 6 7 6 5 6
12 12 13 11 13 14 11 10 8 7 7 8 11 9 14 11 14 12 9 10 11 9 9 8 10 8 7 6 6 5 4 4 5 6 7 6 6 6 5 9 5 4 6
10 11 12 12 12 10 9 9 8 9 8 9 9 14 11 12 12 12 10 11 11 11 12 12 10 11 7 6 5 4 3 5 6 5 6 6 7 7 6 6 6 5 5
9 9 10 11 11 10 9 8 8 9 7 8 8 9 14 14 14 13 13 12 14 11 13 13 13 9 8 8 6 5 5 5 7 8 7 7 8 7 8 8 7 5 5
3 4 7 9 10 10 10 8 8 8 8 9 10 9 11 15 14 14 14 12 12 11 11 13 13 15 10 9 11 5 4 5 5 6 8 7 9 7 7 6 7 6 5
5 4 4 4 6 8 10 10 12 10 10 9 9 8 10 14 14 14 14 14 13 11 12 13 11 12 10 10 6 9 1 1 4 3 4 6 7 8 8 6 6 5 4
5 5 5 5 5 4 7 9 9 11 9 8 8 12 12 10 13 13 15 14 16 11 13 13 13 15 12 10 8 4 6 3 3 3 4 4 6 6 7 7 5 4 5
5 6 5 6 6 4 4 5 9 11 12 10 9 9 8 8 7 10 10 11 12 12 13 12 14 13 13 12 9 8 8 7 8 5 3 6 7 7 6 4 6 4 5
Wind_Direction
142 139 153 146 135 135 137 139 138 129 122 115 110 103 105 102 100 94 73 84 96 121 110 106 104 95 87 87 87 84 80 79 80 83 83 74 73 71 62 33 342 63 62
139 145 141 138 139 138 139 139 131 125 120 111 110 111 107 106 111 97 84 78 118 121 104 124 108 95 94 93 92 90 90 89 91 108 124 102 72 66 55 33 33 65 60
139 137 155 148 142 144 135 128 123 128 124 121 118 115 113 113 119 109 91 48 134 122 93 112 100 97 98 97 95 92 93 94 101 209 211 95 84 60 52 44 72 56 51
137 142 144 135 138 145 135 135 133 132 127 124 121 113 116 119 123 119 92 79 90 95 101 99 98 102 102 98 93 90 90 98 208 277 338 67 87 52 52 40 48 47 29
140 154 123 132 135 138 137 138 139 138 136 130 121 119 118 121 124 123 95 88 90 95 98 97 102 105 104 99 93 89 88 100 257 293 67 48 53 50 53 46 71 58 40
146 147 133 139 137 135 141 146 150 158 147 134 128 125 125 126 128 119 97 98 96 98 102 104 103 108 105 96 85 74 74 265 276 69 103 99 63 62 66 66 62 66 55
148 123 145 135 138 139 147 160 161 165 139 137 133 132 130 126 123 118 109 101 103 104 108 111 110 109 103 92 84 67 38 297 283 88 75 81 68 77 73 63 61 58 57
144 132 135 138 134 131 135 142 158 159 148 146 142 141 135 130 127 127 122 114 112 112 118 118 112 106 102 97 90 73 29 297 240 81 54 72 48 92 85 73 64 61 58
148 153 139 159 144 121 131 149 146 152 157 151 151 144 137 137 138 135 130 130 127 133 130 122 114 112 106 103 107 97 20 301 286 70 72 90 81 104 93 80 73 63 62
158 166 156 175 175 177 166 165 169 168 165 169 158 141 135 136 144 146 141 146 155 143 153 135 127 121 112 109 117 129 220 270 78 114 92 77 103 102 94 84 72 72 74
175 180 172 180 172 176 174 158 180 184 194 173 160 148 150 184 179 156 142 142 181 154 141 142 137 133 127 114 121 169 249 254 134 114 91 103 104 96 94 87 89 77 82
221 183 188 185 173 180 176 149 186 173 186 186 178 172 206 205 182 196 139 147 180 160 152 154 157 166 196 161 161 215 242 135 230 163 104 117 116 107 100 98 98 98 91
202 243 195 188 186 184 183 176 187 183 201 174 186 188 215 201 157 181 154 173 189 198 185 175 179 207 215 208 169 212 108 239 182 150 110 126 125 114 111 106 108 105 98
192 205 217 215 202 198 189 203 195 197 191 201 208 207 197 201 197 190 181 203 197 179 193 209 196 207 202 211 210 209 190 212 228 184 121 132 129 128 130 129 126 119 107
205 200 199 221 204 233 217 201 212 203 201 199 201 206 204 204 212 214 209 175 229 193 218 198 213 189 208 207 206 216 205 204 212 187 117 123 135 142 144 145 140 132 120
209 204 198 206 207 210 235 234 224 210 206 215 204 208 208 208 214 214 222 162 230 221 216 207 203 204 202 199 205 215 214 209 206 198 134 140 145 150 158 162 160 152 142
219 208 199 207 205 211 219 221 222 254 229 214 218 210 214 209 214 215 224 174 201 239 219 218 212 200 203 200 202 209 206 213 208 196 177 144 152 139 170 174 171 165 147
251 248 240 210 203 218 217 220 214 227 246 237 220 220 213 215 213 209 208 212 183 225 215 216 218 209 209 198 205 197 204 207 206 204 193 178 166 176 185 177 175 174 167
244 247 241 244 237 222 220 207 203 222 218 242 238 227 226 220 218 217 215 215 211 205 203 211 211 208 203 198 211 191 205 198 212 208 196 199 193 182 176 138 156 153 176
251 253 252 245 236 248 236 229 185 187 244 219 239 226 222 221 218 217 225 221 215 204 197 203 217 206 209 193 206 196 197 221 206 206 210 196 195 208 196 154 155 159 177
260 253 254 248 246 241 244 239 198 207 213 227 239 243 236 221 222 215 216 226 217 215 203 203 210 207 207 194 170 200 203 221 227 214 215 196 196 191 202 178 179 180 176
260 260 258 254 246 240 245 255 252 209 224 226 226 235 239 239 221 222 218 223 214 214 211 205 201 200 198 195 180 169 199 199 223 223 209 208 201 186 205 197 198 200 177
14 333 287 277 271 265 259 262 263 252 226 212 214 217 224 236 249 225 220 220 229 217 211 207 201 202 197 192 211 165 189 227 149 190 214 208 211 190 198 201 203 190 201
33 12 336 311 275 263 256 256 255 250 241 237 242 229 219 224 229 247 231 223 218 224 219 215 206 206 195 196 204 235 263 336 184 168 217 216 219 213 193 195 199 195 183
11 345 335 323 308 312 269 260 255 252 260 256 244 244 244 231 217 218 239 238 229 218 227 221 214 199 203 196 207 159 217 220 254 200 166 191 218 214 199 199 176 179 173
2 345 334 323 318 317 312 282 261 265 270 257 246 251 249 242 239 215 218 232 237 231 220 227 226 214 204 216 193 192 196 190 201 194 210 157 182 193 200 182 178 174 159